Regional Weather Roundup
Issued by NWS

Home | Current Version | Previous Version | Graphics & Text | Print | Product List | Glossary On
Versions: 1 2 3 4 5 6 7 8 9 10 11 12 13 14 15 16 17 18 19 20 21 22 23 24 25 26 27 28 29 30 31 32 33 34 35 36 37 38 39 40 41 42 43 44 45 46 47 48 49 50
535
ASUS45 KBOU 230210
RWRCO

WEATHER ROUNDUP FOR COLORADO
NATIONAL WEATHER SERVICE DENVER/BOULDER CO
800 PM MDT SUN APR 22 2018

NOTE: "FAIR" INDICATES FEW OR NO CLOUDS BELOW 12000 FEET WITH NO
SIGNIFICANT WEATHER AND/OR OBSTRUCTIONS TO VISIBILITY.

COZ001>005-013-030-031-230300-
...NORTHWEST COLORADO...

CITY           SKY/WX    TMP DP  RH WIND       PRES   REMARKS
CRAIG          FAIR      54  37  52 CALM      30.06S
HAYDEN         FAIR      59  28  30 NW3       30.09S
MEEKER         CLOUDY    60  34  37 S3        30.06S
RANGELY        FAIR      63  35  35 S7        30.00S
RABBIT EARS PA FAIR      41  23  48 W6        30.28S
STEAMBOAT SPGS FAIR      58  29  32 CALM      30.09S
WALDEN         FAIR      50  27  40 NE5       30.17S
$$

COZ006>008-011-230300-
...WEST CENTRAL VALLEYS...

CITY           SKY/WX    TMP DP  RH WIND       PRES   REMARKS
GRAND JUNCTION FAIR      69  28  21 CALM      29.98S
MONTROSE       FAIR      65  21  18 CALM      30.05R
EAGLE          FAIR      58  34  40 SW5       30.09S
RIFLE          FAIR      61  40  45 SW8       30.02S
DELTA          FAIR      70  25  18 SW5       30.01R
NUCLA          FAIR      63  27  25 NW5       30.07S
$$

COZ017>023-064>068-230300-
...SOUTHWEST COLORADO...

CITY           SKY/WX    TMP DP  RH WIND       PRES   REMARKS
DURANGO        FAIR      61  12  14 S7        30.08R
CORTEZ         FAIR      64  21  19 W5        30.05R
PAGOSA SPRINGS FAIR      58  17  19 SW5       30.14R
TELLURIDE      FAIR      49  30  47 E7        30.23S
WOLF CREEK PAS FAIR      36  19  51 W3        30.40R
$$

COZ009-010-012-014-032>034-037-058>063-230300-
...CENTRAL COLORADO...

CITY           SKY/WX    TMP DP  RH WIND       PRES   REMARKS
ASPEN          FAIR      49  31  49 S7        30.13R
BUENA VISTA    CLOUDY    53  30  41 SE10G18   30.18R
COPPER MTN     NOT AVBL
BERTHOUD PASS  FAIR      28  19  69 S7        30.36S WCI  21
COTTONWOOD PAS MOCLDY    52  30  43 SE18G24   30.24F
GUNNISON       CLOUDY    58  28  32 S12       30.13R
GRANBY         FAIR      47  30  51 N5        30.17S
KREMMLING      FAIR      55  32  41 CALM      30.14R
LEADVILLE      CLOUDY    35  33  92 NE13G22   30.25S WCI  26
MONARCH PASS   FAIR      34  25  69 S12       30.45R WCI  25
SALIDA         MOCLDY    57  31  36 SE17G24   30.21R
SUNLIGHT       FAIR      36  23  60 CALM      30.32S
WILKERSON PASS CLOUDY    36  28  75 SW7       30.37R
$$

COZ069>075-230300-
...SAN LUIS VALLEY/SANGRE DE CRISTO MOUNTAINS...

CITY           SKY/WX    TMP DP  RH WIND       PRES   REMARKS
ALAMOSA        CLOUDY    56  26  31 E13       30.12R
DEL NORTE      FAIR      55  23  28 W3        30.15S
LA VETA PASS   FAIR      37  30  75 NE17      30.39R
SAGUACHE       NOT AVBL
$$

COZ035-036-038>040-230300-
...NORTHERN COLORADO FRONT RANGE...

CITY           SKY/WX    TMP DP  RH WIND       PRES   REMARKS
DENVER INTL AP FAIR      51  36  56 E8        30.11R
AURORA         NOT AVBL
FRONT RANGE AP PTCLDY    54  37  54 E7        30.13R
ERIE MUNI ARPT FAIR      58  33  38 E6        30.15R
BOULDER MUN AP FAIR      59  32  36 NE5       30.10R
CENTENNIAL     FAIR      56  32  40 E7        30.12R
BROOMFIELD     PTCLDY    57  32  38 NE6       30.12R
FORT COLLINS   FAIR      55  37  50 SE8       30.10R
LONGMONT       FAIR      58  35  42 E7        30.11S
$$

COZ041-046-047-076>085-087-088-230300-
...PIKES PEAK/PALMER DIVIDE AND SOUTHERN FOOTHILLS...

CITY           SKY/WX    TMP DP  RH WIND       PRES   REMARKS
COLO. SPRINGS  FAIR      50  38  63 S10       30.17R
A. F. ACADEMY  NOT AVBL
SCHRIEVER AFB  NOT AVBL
CHEYENNE MTN   FAIR      47  36  65 S13       30.13R
ELLICOTT         N/A    N/A N/A N/A S8        30.16R
FALCON         FAIR      45  36  71 S7        30.20R
FORT CARSON    FAIR      50  38  64 SE8       30.15R
LIMON          FAIR      48  38  68 SE9       30.14R
MONUMENT HILL  FAIR      45  30  57 E6        30.19R
CANON CITY     MOCLDY    55  39  54 E12       30.13R
WALSENBURG     NOT AVBL
TRINIDAD       FAIR      54  30  40 E5        30.13R
$$

COZ042>045-048>051-090-091-230300-
...NORTHEAST COLORADO...

CITY           SKY/WX    TMP DP  RH WIND       PRES   REMARKS
GREELEY ARPT   FAIR      56  37  49 SE12      30.10R
AKRON          FAIR      47  38  71 SE10      30.13R
BURLINGTON     FAIR      43  36  76 E7        30.16R
WRAY           FAIR      48  36  61 SE7       30.15R
YUMA           FAIR      45  37  76 SE7       30.13S
STERLING       NOT AVBL
HOLYOKE        FAIR      50  37  62 SE9       30.15R
FORT MORGAN    FAIR      50  36  58 E9        30.12R
$$

COZ086-089-092>099-230300-
...SOUTHEAST COLORADO...

CITY           SKY/WX    TMP DP  RH WIND       PRES   REMARKS
PUEBLO         FAIR      55  37  50 E14       30.12R
LA JUNTA       FAIR      51  36  56 E9        30.13R
LAMAR          FAIR      48  36  63 E7        30.13R
SPRINGFIELD      N/A     44  35  70 SE7       30.16R
$$




USA.gov is the U.S. government's official web portal to all federal, state and local government web resources and services.